FW7886 Weather Reports


Display with metric or nautical units.
time (UTC)temp
F
wind
direction
speed
MPH
gust
MPH
rain 1hr
in
rain 24hr
in
rain mn
in
humidity
%
barometer
mb
20260505092721 61 43 0.0 0.0 0.00 0.00 0.00 94 1011.6
20260505092221 61 43 0.0 1.0 0.00 0.00 0.00 95 1011.5
20260505091719 61 43 0.0 1.0 0.00 0.00 0.00 95 1011.4
20260505091214 60 43 0.0 1.0 0.00 0.00 0.00 95 1011.4
20260505090714 60 43 0.0 1.0 0.00 0.00 0.00 94 1011.4
20260505090212 60 43 0.0 1.0 0.00 0.00 0.00 94 1011.3
20260505085714 60 43 0.0 1.0 0.00 0.00 0.00 94 1011.4
20260505085210 61 43 0.0 1.0 0.00 0.00 0.00 94 1011.4
20260505084711 61 43 0.0 0.0 0.00 0.00 0.00 93 1011.5
20260505084211 61 43 0.0 1.0 0.00 0.00 0.00 94 1011.5
20260505083709 61 43 0.0 1.0 0.00 0.00 0.00 94 1011.7
20260505083209 60 43 0.0 0.0 0.00 0.00 0.00 92 1011.7
20260505082709 60 43 0.0 0.0 0.00 0.00 0.00 91 1011.7
20260505082646 61 43 0.0 0.0 0.00 0.00 0.00 90 1011.6
20260505081707 61 43 0.0 0.0 0.00 0.00 0.00 90 1011.6
20260505081207 61 43 0.0 0.0 0.00 0.00 0.00 90 1011.6
20260505080707 62 43 0.0 1.0 0.00 0.00 0.00 89 1011.7
20260505080208 62 43 0.0 1.0 0.00 0.00 0.00 89 1011.6
20260505075704 62 43 0.0 0.0 0.00 0.00 0.00 89 1011.5
20260505075202 63 43 0.0 0.0 0.00 0.00 0.00 89 1011.5
20260505074704 63 43 0.0 1.0 0.00 0.00 0.00 89 1011.4
20260505074203 63 43 0.0 1.0 0.00 0.00 0.00 88 1011.5
20260505073702 63 43 0.0 2.0 0.00 0.00 0.00 88 1011.4
20260505073646 63 43 0.0 2.0 0.00 0.00 0.00 88 1011.4
20260505072703 63 43 0.0 1.0 0.00 0.00 0.00 88 1011.4
20260505072204 63 43 0.0 2.0 0.00 0.00 0.00 88 1011.4
20260505071704 63 43 0.0 2.0 0.00 0.00 0.00 87 1011.4
20260505071200 63 43 0.0 1.0 0.00 0.00 0.00 88 1011.4
20260505070659 63 43 0.0 1.0 0.00 0.00 0.00 87 1011.7
20260505070159 63 43 0.0 2.0 0.00 0.00 0.00 87 1012.0
20260505065659 63 43 0.0 2.0 0.00 0.00 0.00 86 1012.1
20260505065200 64 43 0.0 1.0 0.00 0.00 0.00 87 1012.0
20260505064658 64 43 0.0 2.0 0.00 0.00 0.00 87 1012.1
20260505064158 64 43 1.0 2.0 0.00 0.00 0.00 86 1012.1
20260505063924 64 43 1.0 2.0 0.00 0.00 0.00 86 1012.2
20260505063200 64 43 0.0 2.0 0.00 0.00 0.00 86 1012.2
20260505062658 64 43 1.0 2.0 0.00 0.00 0.00 86 1012.2
20260505062158 64 43 0.0 1.0 0.00 0.00 0.00 86 1012.2
20260505061923 64 43 1.0 2.0 0.00 0.00 0.00 85 1012.4
20260505061157 64 43 1.0 2.0 0.00 0.00 0.00 85 1012.4
20260505060656 64 43 1.0 2.0 0.00 0.00 0.00 85 1012.4
20260505060156 64 43 1.0 2.0 0.00 0.00 0.00 85 1012.5
20260505055917 64 43 1.0 2.0 0.00 0.00 0.00 85 1012.6
20260505055156 64 43 1.0 2.0 0.00 0.00 0.00 84 1012.7
20260505054653 64 43 1.0 2.0 0.00 0.00 0.00 84 1012.7
20260505054153 64 43 0.0 1.0 0.00 0.00 0.00 84 1012.8
20260505053650 64 43 1.0 1.0 0.00 0.00 0.00 84 1012.9
20260505053152 64 43 1.0 1.0 0.00 0.00 0.00 83 1012.9
20260505053136 65 43 0.0 1.0 0.00 0.00 0.00 83 1012.9
20260505052145 65 43 0.0 1.0 0.00 0.00 0.00 84 1012.8
20260505051638 65 43 0.0 1.0 0.00 0.00 0.00 83 1012.8
20260505051133 65 43 0.0 1.0 0.00 0.00 0.00 84 1012.9
20260505050853 65 43 0.0 1.0 0.00 0.00 0.00 83 1012.7
20260505050120 65 43 0.0 1.0 0.00 0.00 0.00 83 1012.8
20260505041552 66 43 2.0 4.0 0.00 0.00 0.00 79 1012.7
20260505041533 66 43 2.0 4.0 0.00 0.00 0.00 79 1012.9
20260505040548 66 43 2.0 4.0 0.00 0.00 0.00 79 1012.8
20260505040044 66 43 2.0 4.0 0.00 0.00 0.00 79 1012.8
20260505035546 66 43 2.0 4.0 0.00 0.00 0.00 78 1012.9
20260505035046 66 43 2.0 4.0 0.00 0.00 0.00 79 1012.8
20260505034543 66 43 2.0 4.0 0.00 0.00 0.00 78 1012.9
20260505034043 67 43 2.0 4.0 0.00 0.00 0.00 77 1012.9
20260505033544 67 43 2.0 4.0 0.00 0.00 0.00 76 1012.8
20260505033042 67 43 1.0 4.0 0.00 0.00 0.00 76 1012.8
20260505032543 67 43 2.0 4.0 0.00 0.00 0.00 75 1013.0
20260505032042 68 43 2.0 4.0 0.00 0.00 0.00 75 1013.1
20260505031543 68 43 2.0 4.0 0.00 0.00 0.00 74 1013.0
20260505031042 68 43 2.0 4.0 0.00 0.00 0.00 75 1012.9
20260505030538 68 43 1.0 4.0 0.00 0.00 0.00 73 1012.9
20260505030039 68 43 1.0 3.0 0.00 0.00 0.00 75 1012.8
20260505025539 68 43 1.0 3.0 0.00 0.00 0.00 73 1012.8
20260505025039 68 43 1.0 4.0 0.00 0.00 0.00 72 1012.7
20260505024540 69 43 1.0 4.0 0.00 0.00 0.00 72 1012.7
20260505024039 69 43 1.0 4.0 0.00 0.00 0.00 72 1012.6
20260505023539 69 43 2.0 4.0 0.00 0.00 0.00 71 1012.6
20260505023040 69 43 1.0 4.0 0.00 0.00 0.00 73 1012.5
20260505022540 69 43 2.0 3.0 0.00 0.00 0.00 71 1012.5
20260505022038 69 43 2.0 3.0 0.00 0.00 0.00 71 1012.2
20260505021540 69 43 1.0 5.0 0.00 0.00 0.00 70 1012.4
20260505021040 69 43 1.0 5.0 0.00 0.00 0.00 70 1012.5
20260505020538 69 43 1.0 4.0 0.00 0.00 0.00 70 1012.5
20260505020040 69 43 1.0 3.0 0.00 0.00 0.00 71 1012.4
20260505015539 70 43 1.0 5.0 0.00 0.00 0.00 68 1012.6
20260505015042 70 43 1.0 5.0 0.00 0.00 0.00 69 1012.3
20260505014801 70 43 1.0 4.0 0.00 0.00 0.00 68 1012.4
20260505014040 70 43 1.0 4.0 0.00 0.00 0.00 67 1012.6
20260505013534 70 43 1.0 4.0 0.00 0.00 0.00 67 1012.3
20260505013028 71 43 1.0 4.0 0.00 0.00 0.00 67 1012.3
20260505012741 71 43 2.0 4.0 0.00 0.00 0.00 66 1012.2
20260505012239 71 43 2.0 4.0 0.00 0.00 0.00 65 1012.2
20260505011509 71 43 2.0 4.0 0.00 0.00 0.00 66 1012.1
20260505011004 71 43 2.0 5.0 0.00 0.00 0.00 65 1012.3
20260505010458 71 43 2.0 5.0 0.00 0.00 0.00 64 1012.2
20260505005950 72 43 2.0 4.0 0.00 0.00 0.00 63 1012.2
20260505005444 72 43 2.0 5.0 0.00 0.00 0.00 63 1012.3
20260505005158 72 43 2.0 5.0 0.00 0.00 0.00 62 1012.2
20260505004444 73 43 3.0 5.0 0.00 0.00 0.00 61 1012.0
20260505003944 73 43 3.0 6.0 0.00 0.00 0.00 60 1012.1
20260505003441 73 43 2.0 6.0 0.00 0.00 0.00 60 1012.1
20260505002940 73 43 2.0 6.0 0.00 0.00 0.00 59 1012.3
20260505002441 74 43 2.0 6.0 0.00 0.00 0.00 57 1012.3
20260505001940 74 43 2.0 5.0 0.00 0.00 0.00 57 1012.5
20260505001440 74 43 2.0 6.0 0.00 0.00 0.00 57 1012.4
20260505001203 75 43 3.0 6.0 0.00 0.00 0.00 55 1012.5
20260505000442 75 43 3.0 6.0 0.00 0.00 0.00 54 1012.5
20260504235938 75 43 3.0 7.0 0.00 0.00 0.00 53 1012.8
20260504235702 75 43 3.0 7.0 0.00 0.00 0.00 52 1012.8
20260504234938 76 43 3.0 7.0 0.00 0.00 0.00 52 1012.8
20260504234440 75 43 3.0 8.0 0.00 0.00 0.00 52 1012.9
20260504233939 75 43 4.0 11.0 0.00 0.00 0.00 52 1012.8
20260504233439 76 43 3.0 11.0 0.00 0.00 0.00 53 1012.9
20260504232933 76 43 3.0 6.0 0.00 0.00 0.00 53 1012.9
20260504232427 76 43 3.0 9.0 0.00 0.00 0.00 52 1012.9
20260504231921 76 43 3.0 9.0 0.00 0.00 0.00 53 1013.0
20260504231414 77 104 4.0 9.0 0.00 0.00 0.00 51 1013.0
20260504230909 77 235 4.0 10.0 0.00 0.00 0.00 51 1013.0
20260504230402 77 271 4.0 10.0 0.00 0.00 0.00 51 1013.0
20260504225857 77 44 4.0 9.0 0.00 0.00 0.00 54 1013.0
20260504225608 78 47 4.0 9.0 0.00 0.00 0.00 50 1013.0
20260504224844 78 43 4.0 9.0 0.00 0.00 0.00 49 1013.0
20260504224339 78 43 3.0 8.0 0.00 0.00 0.00 49 1013.1
20260504223834 78 43 4.0 7.0 0.00 0.00 0.00 50 1013.2
20260504223327 78 43 4.0 9.0 0.00 0.00 0.00 48 1013.2
20260504223047 78 45 4.0 9.0 0.00 0.00 0.00 50 1013.2
20260504222537 78 44 4.0 10.0 0.00 0.00 0.00 50 1013.1
20260504222259 78 263 3.0 10.0 0.00 0.00 0.00 49 1013.2
20260504221303 78 244 4.0 10.0 0.00 0.00 0.00 48 1013.4
20260504220757 78 246 4.0 10.0 0.00 0.00 0.00 48 1013.3
20260504220251 78 47 4.0 7.0 0.00 0.00 0.00 47 1013.5
20260504215745 78 48 4.0 7.0 0.00 0.00 0.00 48 1013.5
20260504215239 78 48 4.0 7.0 0.00 0.00 0.00 48 1013.5
20260504214734 78 255 4.0 9.0 0.00 0.00 0.00 49 1013.6
20260504214227 78 286 4.0 11.0 0.00 0.00 0.00 48 1013.6
20260504213943 78 39 4.0 11.0 0.00 0.00 0.00 50 1013.6
20260504213215 78 45 4.0 8.0 0.00 0.00 0.00 50 1013.7
20260504212708 78 45 4.0 9.0 0.00 0.00 0.00 48 1013.7
20260504212203 78 48 4.0 9.0 0.00 0.00 0.00 49 1013.7
20260504211656 78 42 4.0 9.0 0.00 0.00 0.00 50 1013.7
20260504211151 78 42 4.0 11.0 0.00 0.00 0.00 50 1013.7
20260504210644 78 42 4.0 11.0 0.00 0.00 0.00 49 1013.8
20260504210145 78 313 4.0 10.0 0.00 0.00 0.00 49 1013.8
20260504205645 78 42 3.0 9.0 0.00 0.00 0.00 49 1013.9
20260504205148 78 42 4.0 9.0 0.00 0.00 0.00 49 1014.2
20260504204644 78 135 4.0 11.0 0.00 0.00 0.00 50 1014.2
20260504204407 78 287 5.0 11.0 0.00 0.00 0.00 51 1014.2
20260504203904 78 40 5.0 9.0 0.00 0.00 0.00 50 1014.1
20260504203144 78 240 4.0 9.0 0.00 0.00 0.00 50 1014.4
20260504202643 78 47 4.0 8.0 0.00 0.00 0.00 48 1014.6
20260504202143 78 48 4.0 8.0 0.00 0.00 0.00 52 1014.6
20260504201642 78 43 4.0 9.0 0.00 0.00 0.00 49 1014.6
20260504201142 78 44 5.0 9.0 0.00 0.00 0.00 49 1014.7
20260504200642 78 44 5.0 9.0 0.00 0.00 0.00 48 1014.7
20260504200633 78 44 4.0 9.0 0.00 0.00 0.00 49 1014.8
20260504195904 78 44 4.0 9.0 0.00 0.00 0.00 51 1014.8
20260504195144 78 45 4.0 9.0 0.00 0.00 0.00 50 1014.9
20260504194905 78 45 4.0 9.0 0.00 0.00 0.00 51 1015.2
20260504194406 77 45 4.0 9.0 0.00 0.00 0.00 50 1015.2
20260504193636 77 261 5.0 11.0 0.00 0.00 0.00 51 1015.3
20260504193131 77 270 6.0 11.0 0.00 0.00 0.00 51 1015.4
20260504192625 77 262 5.0 12.0 0.00 0.00 0.00 50 1015.4
20260504192125 77 250 5.0 12.0 0.00 0.00 0.00 53 1015.6
20260504191625 77 43 4.0 10.0 0.00 0.00 0.00 51 1015.5
20260504191125 77 11 4.0 11.0 0.00 0.00 0.00 50 1015.6
20260504190622 77 281 4.0 11.0 0.00 0.00 0.00 48 1015.5
20260504190122 77 272 4.0 11.0 0.00 0.00 0.00 48 1015.5
20260504185622 77 256 4.0 11.0 0.00 0.00 0.00 50 1015.5
20260504185124 78 44 4.0 10.0 0.00 0.00 0.00 49 1015.7
20260504184622 78 44 3.0 9.0 0.00 0.00 0.00 49 1015.7
20260504184120 78 40 3.0 7.0 0.00 0.00 0.00 49 1015.7
20260504183619 78 292 3.0 11.0 0.00 0.00 0.00 48 1015.7
20260504183343 77 98 4.0 11.0 0.00 0.00 0.00 49 1015.8
20260504182617 77 48 4.0 8.0 0.00 0.00 0.00 49 1015.8
20260504182117 77 48 4.0 8.0 0.00 0.00 0.00 50 1015.8
20260504181616 77 49 3.0 7.0 0.00 0.00 0.00 49 1015.9
20260504181115 77 124 3.0 7.0 0.00 0.00 0.00 48 1016.0
20260504180613 77 48 4.0 9.0 0.00 0.00 0.00 47 1016.1
20260504180329 76 47 4.0 9.0 0.00 0.00 0.00 50 1016.3
20260504175611 77 7 4.0 8.0 0.00 0.00 0.00 49 1016.3
20260504175108 76 42 4.0 9.0 0.00 0.00 0.00 49 1016.2
20260504174830 76 42 4.0 9.0 0.00 0.00 0.00 50 1016.2
20260504174109 76 43 4.0 9.0 0.00 0.00 0.00 52 1016.3
20260504173607 76 43 4.0 10.0 0.00 0.00 0.00 50 1016.3
20260504173326 76 43 4.0 10.0 0.00 0.00 0.00 49 1016.5
20260504172609 76 43 4.0 9.0 0.00 0.00 0.00 49 1016.5
20260504172108 76 247 4.0 9.0 0.00 0.00 0.00 49 1016.5
20260504171609 76 306 4.0 10.0 0.00 0.00 0.00 48 1016.7
20260504171327 76 40 4.0 10.0 0.00 0.00 0.00 50 1016.7
20260504170609 76 262 4.0 9.0 0.00 0.00 0.00 49 1016.6
20260504170108 76 317 4.0 9.0 0.00 0.00 0.00 51 1016.7
20260504160105 74 273 5.0 12.0 0.00 0.00 0.00 50 1017.3
20260504151102 74 45 3.0 7.0 0.00 0.00 0.00 57 1017.5
20260504150557 73 45 3.0 7.0 0.00 0.00 0.00 57 1017.5
20260504140951 70 45 1.0 3.0 0.00 0.00 0.00 73 1017.3
20260504140703 70 45 1.0 3.0 0.00 0.00 0.00 73 1017.5
20260504130332 65 45 0.0 0.0 0.00 0.00 0.00 85 1017.4
20260504120221 53 45 0.0 0.0 0.00 0.00 0.00 98 1017.0
20260504110614 54 45 0.0 1.0 0.00 0.00 0.00 98 1016.5
20260504110109 53 45 0.0 0.0 0.00 0.00 0.00 97 1016.4
20260504100504 55 45 0.0 0.0 0.00 0.00 0.00 95 1016.5